| time (UTC) | temp F | wind direction | speed knots | gust knots | rain 1hr in | rain 24hr in | rain mn in | humidity % | barometer mb |
| 20260906234553 | 57 | 162 | 0.0 | 0.0 | 0.00 | 0.00 | 0.00 | 98 | 1005.0 |
| 20260906233052 | 57 | 162 | 0.0 | 0.0 | 0.00 | 0.00 | 0.00 | 98 | 1005.2 |
| 20260906231552 | 57 | 162 | 0.0 | 1.7 | 0.00 | 0.00 | 0.00 | 98 | 1005.2 |
| 20260906230049 | 57 | 158 | 0.0 | 0.0 | 0.00 | 0.00 | 0.00 | 98 | 1005.1 |
| 20260906224550 | 57 | 158 | 0.0 | 0.0 | 0.00 | 0.00 | 0.00 | 98 | 1005.0 |
| 20260906223048 | 56 | 158 | 0.0 | 0.0 | 0.00 | 0.00 | 0.00 | 97 | 1004.9 |
| 20260906221548 | 56 | 158 | 0.0 | 0.0 | 0.00 | 0.00 | 0.00 | 97 | 1004.9 |
| 20260906220047 | 56 | 158 | 0.0 | 0.9 | 0.00 | 0.00 | 0.00 | 97 | 1004.9 |
| 20260906214546 | 56 | 153 | 0.0 | 0.0 | 0.00 | 0.00 | 0.00 | 97 | 1004.8 |
| 20260906213053 | 56 | 153 | 0.0 | 2.6 | 0.00 | 0.00 | 0.00 | 97 | 1004.8 |
| 20260906211545 | 56 | 152 | 0.0 | 1.7 | 0.00 | 0.00 | 0.00 | 97 | 1004.9 |
| 20260906210046 | 56 | 150 | 0.0 | 2.6 | 0.00 | 0.00 | 0.00 | 97 | 1004.8 |
| 20260906204556 | 56 | 150 | 0.0 | 1.7 | 0.00 | 0.00 | 0.00 | 97 | 1004.9 |
| 20260906203053 | 56 | 150 | 0.0 | 2.6 | 0.00 | 0.00 | 0.00 | 97 | 1004.8 |
| 20260906201541 | 56 | 147 | 0.0 | 1.7 | 0.00 | 0.00 | 0.00 | 97 | 1004.8 |
| 20260906200039 | 56 | 173 | 0.0 | 0.0 | 0.00 | 0.00 | 0.00 | 97 | 1004.9 |
| 20260906194537 | 56 | 174 | 0.0 | 0.9 | 0.00 | 0.00 | 0.00 | 97 | 1004.7 |
| 20260906193036 | 57 | 174 | 0.0 | 0.0 | 0.00 | 0.00 | 0.00 | 97 | 1004.6 |
| 20260906191536 | 57 | 174 | 0.0 | 0.0 | 0.00 | 0.00 | 0.00 | 97 | 1004.8 |
| 20260906190034 | 57 | 164 | 0.0 | 0.0 | 0.00 | 0.00 | 0.00 | 97 | 1004.8 |
| 20260906184532 | 57 | 195 | 0.0 | 3.5 | 0.00 | 0.00 | 0.00 | 97 | 1004.9 |
| 20260906183031 | 56 | 158 | 0.0 | 3.5 | 0.00 | 0.00 | 0.00 | 97 | 1004.8 |
| 20260906181539 | 56 | 178 | 0.0 | 0.0 | 0.00 | 0.00 | 0.00 | 97 | 1004.7 |
| 20260906180047 | 57 | 177 | 0.0 | 0.0 | 0.00 | 0.00 | 0.00 | 97 | 1004.7 |
| 20260906174534 | 57 | 177 | 0.0 | 3.5 | 0.00 | 0.00 | 0.00 | 97 | 1004.9 |
| 20260906173031 | 57 | 208 | 0.0 | 3.5 | 0.00 | 0.00 | 0.00 | 97 | 1004.8 |
| 20260906171529 | 57 | 218 | 0.0 | 0.0 | 0.00 | 0.00 | 0.00 | 97 | 1005.1 |
| 20260906170029 | 57 | 213 | 0.0 | 3.5 | 0.00 | 0.00 | 0.00 | 97 | 1005.3 |
| 20260906164528 | 57 | 247 | 0.9 | 5.2 | 0.00 | 0.00 | 0.00 | 97 | 1005.1 |
| 20260906163027 | 57 | 202 | 0.0 | 3.5 | 0.00 | 0.00 | 0.00 | 97 | 1005.3 |
| 20260906161528 | 56 | 241 | 0.0 | 4.3 | 0.00 | 0.00 | 0.00 | 96 | 1005.4 |
| 20260906160033 | 56 | 153 | 0.0 | 0.0 | 0.00 | 0.00 | 0.00 | 96 | 1005.1 |
| 20260906154526 | 56 | 152 | 0.0 | 0.0 | 0.00 | 0.00 | 0.00 | 96 | 1004.7 |
| 20260906153028 | 56 | 152 | 0.0 | 0.0 | 0.00 | 0.00 | 0.00 | 96 | 1004.8 |
| 20260906151524 | 57 | 152 | 0.0 | 3.5 | 0.00 | 0.00 | 0.00 | 96 | 1004.4 |
| 20260906150130 | 57 | 188 | 0.0 | 3.5 | 0.00 | 0.00 | 0.00 | 96 | 1004.5 |
| 20260906144523 | 57 | 180 | 0.0 | 0.0 | 0.00 | 0.00 | 0.00 | 96 | 1004.3 |
| 20260906143020 | 57 | 174 | 0.9 | 3.5 | 0.00 | 0.00 | 0.00 | 96 | 1004.2 |
| 20260906141522 | 58 | 160 | 0.0 | 2.6 | 0.00 | 0.00 | 0.00 | 96 | 1004.1 |
| 20260906140019 | 57 | 164 | 0.0 | 3.5 | 0.00 | 0.00 | 0.00 | 96 | 1004.5 |
| 20260906134518 | 58 | 161 | 0.0 | 0.9 | 0.00 | 0.00 | 0.00 | 96 | 1004.1 |
| 20260906133017 | 58 | 165 | 0.0 | 2.6 | 0.00 | 0.00 | 0.00 | 96 | 1003.9 |
| 20260906131517 | 58 | 170 | 0.9 | 3.5 | 0.00 | 0.00 | 0.00 | 96 | 1004.0 |
| 20260906130016 | 59 | 155 | 0.0 | 3.5 | 0.00 | 0.00 | 0.00 | 96 | 1004.0 |
| 20260906124515 | 59 | 158 | 0.0 | 1.7 | 0.00 | 0.00 | 0.00 | 96 | 1004.0 |
| 20260906123017 | 60 | 191 | 0.0 | 3.5 | 0.00 | 0.00 | 0.00 | 96 | 1004.1 |
| 20260906121516 | 60 | 193 | 0.0 | 4.3 | 0.00 | 0.00 | 0.00 | 96 | 1004.0 |
| 20260906120015 | 59 | 185 | 0.0 | 2.6 | 0.00 | 0.00 | 0.00 | 96 | 1003.8 |
| 20260906114528 | 60 | 210 | 0.0 | 4.3 | 0.00 | 0.00 | 0.00 | 96 | 1004.0 |
| 20260906113017 | 60 | 153 | 0.0 | 7.0 | 0.00 | 0.00 | 0.00 | 96 | 1003.9 |
| 20260906111513 | 61 | 195 | 0.9 | 5.2 | 0.00 | 0.00 | 0.00 | 96 | 1003.8 |
| 20260906110015 | 61 | 211 | 0.0 | 4.3 | 0.00 | 0.00 | 0.00 | 96 | 1003.9 |
| 20260906104520 | 61 | 170 | 0.0 | 4.3 | 0.00 | 0.00 | 0.00 | 96 | 1003.8 |
| 20260906103012 | 61 | 198 | 0.0 | 5.2 | 0.00 | 0.00 | 0.00 | 96 | 1003.9 |
| 20260906101520 | 61 | 153 | 0.9 | 7.8 | 0.00 | 0.00 | 0.00 | 96 | 1003.7 |
| 20260906100018 | 61 | 190 | 0.0 | 5.2 | 0.00 | 0.00 | 0.00 | 96 | 1003.5 |
| 20260906094511 | 61 | 195 | 0.0 | 3.5 | 0.00 | 0.00 | 0.00 | 96 | 1003.5 |
| 20260906093010 | 60 | 165 | 0.0 | 4.3 | 0.00 | 0.00 | 0.00 | 96 | 1003.4 |
| 20260906091514 | 60 | 210 | 0.0 | 4.3 | 0.00 | 0.00 | 0.00 | 97 | 1003.5 |
| 20260906090014 | 60 | 205 | 0.9 | 5.2 | 0.00 | 0.00 | 0.00 | 97 | 1003.3 |
| 20260906084508 | 60 | 238 | 0.0 | 4.3 | 0.00 | 0.00 | 0.00 | 97 | 1003.3 |
| 20260906083108 | 60 | 197 | 0.9 | 4.3 | 0.00 | 0.00 | 0.00 | 97 | 1003.1 |
| 20260906081508 | 60 | 183 | 0.0 | 1.7 | 0.00 | 0.00 | 0.00 | 96 | 1003.0 |
| 20260906080007 | 60 | 209 | 0.0 | 4.3 | 0.00 | 0.00 | 0.00 | 96 | 1003.0 |
| 20260906074507 | 60 | 203 | 0.0 | 4.3 | 0.00 | 0.00 | 0.00 | 96 | 1002.9 |
| 20260906073005 | 59 | 223 | 0.9 | 4.3 | 0.00 | 0.00 | 0.00 | 96 | 1002.8 |
| 20260906071505 | 59 | 222 | 0.0 | 5.2 | 0.00 | 0.00 | 0.00 | 95 | 1002.7 |
| 20260906070005 | 59 | 207 | 0.0 | 4.3 | 0.00 | 0.00 | 0.00 | 95 | 1002.7 |
| 20260906064504 | 59 | 219 | 0.0 | 3.5 | 0.00 | 0.00 | 0.00 | 95 | 1002.4 |
| 20260906063004 | 59 | 165 | 0.0 | 7.8 | 0.00 | 0.00 | 0.00 | 94 | 1002.2 |
| 20260906061502 | 59 | 110 | 0.0 | 3.5 | 0.00 | 0.00 | 0.00 | 94 | 1002.3 |
| 20260906060100 | 59 | 213 | 0.9 | 6.1 | 0.00 | 0.00 | 0.00 | 95 | 1002.3 |
| 20260906054606 | 59 | 158 | 0.0 | 4.3 | 0.00 | 0.00 | 0.00 | 95 | 1002.3 |
| 20260906053102 | 59 | 193 | 0.9 | 6.1 | 0.00 | 0.00 | 0.00 | 95 | 1002.2 |
| 20260906051612 | 59 | 170 | 0.9 | 8.7 | 0.00 | 0.00 | 0.00 | 95 | 1002.3 |
| 20260906050058 | 59 | 158 | 0.9 | 6.1 | 0.00 | 0.00 | 0.00 | 95 | 1002.3 |
| 20260906044606 | 59 | 172 | 0.0 | 5.2 | 0.00 | 0.00 | 0.00 | 95 | 1002.4 |
| 20260906043057 | 59 | 257 | 0.0 | 4.3 | 0.00 | 0.00 | 0.00 | 95 | 1002.5 |
| 20260906041556 | 59 | 189 | 0.0 | 3.5 | 0.00 | 0.00 | 0.00 | 95 | 1002.6 |
| 20260906040134 | 59 | 139 | 0.0 | 7.8 | 0.00 | 0.00 | 0.00 | 94 | 1002.6 |
| 20260906034604 | 59 | 142 | 0.0 | 5.2 | 0.00 | 0.00 | 0.00 | 93 | 1002.4 |
| 20260906033105 | 59 | 224 | 0.0 | 1.7 | 0.00 | 0.00 | 0.00 | 92 | 1002.6 |
| 20260906031554 | 59 | 186 | 0.0 | 3.5 | 0.00 | 0.00 | 0.00 | 92 | 1002.4 |
| 20260906030057 | 59 | 153 | 0.0 | 4.3 | 0.00 | 0.00 | 0.00 | 91 | 1002.4 |
| 20260906024607 | 59 | 182 | 0.0 | 6.1 | 0.00 | 0.00 | 0.00 | 92 | 1002.3 |
| 20260906023101 | 59 | 174 | 0.0 | 6.1 | 0.00 | 0.00 | 0.00 | 92 | 1002.3 |
| 20260906021550 | 59 | 164 | 0.0 | 6.1 | 0.00 | 0.00 | 0.00 | 92 | 1002.5 |
| 20260906020050 | 59 | 164 | 0.9 | 6.1 | 0.00 | 0.00 | 0.00 | 93 | 1002.5 |
| 20260906014549 | 58 | 171 | 0.0 | 5.2 | 0.00 | 0.00 | 0.00 | 94 | 1002.6 |
| 20260906013048 | 58 | 173 | 0.0 | 4.3 | 0.00 | 0.00 | 0.00 | 94 | 1002.7 |
| 20260906011548 | 58 | 166 | 0.0 | 3.5 | 0.00 | 0.00 | 0.00 | 95 | 1002.7 |
| 20260906010047 | 58 | 180 | 0.9 | 6.1 | 0.00 | 0.00 | 0.00 | 95 | 1002.7 |
| 20260906004546 | 58 | 120 | 0.0 | 5.2 | 0.00 | 0.00 | 0.00 | 95 | 1002.8 |
| 20260906003045 | 58 | 154 | 0.0 | 4.3 | 0.00 | 0.00 | 0.00 | 95 | 1003.0 |
| 20260906001543 | 58 | 170 | 0.9 | 7.0 | 0.00 | 0.00 | 0.00 | 95 | 1003.2 |
| 20260906000042 | 58 | 177 | 0.0 | 4.3 | 0.00 | 0.00 | 0.00 | 94 | 1003.5 |